KC5TIL Weather Reports


time (UTC)temp
C
wind
direction
speed
KPH
gust
KPH
rain 1hr
cm
rain 24hr
cm
rain mn
cm
humidity
%
barometer
mb
20260509201942 32 129 1.6 3.2 0.00 0.00 0.00 46 1009.3
20260509201437 32 161 1.6 4.8 0.00 0.00 0.00 42 1009.2
20260509200935 32 180 1.6 3.2 0.00 0.00 0.00 46 1009.3
20260509200434 32 171 1.6 3.2 0.00 0.00 0.00 46 1009.4
20260509195932 32 137 0.0 1.6 0.00 0.00 0.00 44 1009.3
20260509195427 32 121 1.6 3.2 0.00 0.00 0.00 44 1009.3
20260509194926 31 162 1.6 3.2 0.00 0.00 0.00 46 1009.4
20260509194422 31 132 1.6 4.8 0.00 0.00 0.00 52 1009.6
20260509193920 32 109 1.6 3.2 0.00 0.00 0.00 45 1009.6
20260509193419 31 120 0.0 1.6 0.00 0.00 0.00 44 1009.7
20260509192916 31 291 3.2 4.8 0.00 0.00 0.00 44 1009.6
20260509192412 31 347 4.8 9.7 0.00 0.00 0.00 45 1009.9
20260509191907 31 141 0.0 9.7 0.00 0.00 0.00 45 1009.6
20260509191403 31 261 4.8 8.0 0.00 0.00 0.00 45 1009.9
20260509190859 31 127 0.0 3.2 0.00 0.00 0.00 47 1009.9
20260509190356 31 119 1.6 3.2 0.00 0.00 0.00 46 1010.0
20260509185854 31 51 3.2 8.0 0.00 0.00 0.00 46 1009.9
20260509185350 31 300 6.4 11.3 0.00 0.00 0.00 46 1010.2
20260509184847 31 342 4.8 8.0 0.00 0.00 0.00 47 1010.1
20260509184344 31 307 6.4 9.7 0.00 0.00 0.00 46 1010.1
20260509183841 31 93 0.0 1.6 0.00 0.00 0.00 47 1010.2
20260509183336 31 145 1.6 8.0 0.00 0.00 0.00 48 1010.1
20260509182832 31 180 1.6 11.3 0.00 0.00 0.00 46 1010.5
20260509182329 31 120 0.0 3.2 0.00 0.00 0.00 47 1010.5
20260509181826 31 292 3.2 4.8 0.00 0.00 0.00 47 1010.3
20260509181318 30 29 1.6 3.2 0.00 0.00 0.00 49 1010.5
20260509180816 30 282 8.0 11.3 0.00 0.00 0.00 49 1010.5
20260509180311 30 239 3.2 9.7 0.00 0.00 0.00 50 1010.6
20260509175808 30 198 1.6 8.0 0.00 0.00 0.00 50 1010.7
20260509175259 30 316 6.4 8.0 0.00 0.00 0.00 50 1010.6
20260509174755 30 324 4.8 8.0 0.00 0.00 0.00 47 1010.6
20260509174250 30 43 1.6 4.8 0.00 0.00 0.00 50 1010.9
20260509173747 30 30 8.0 9.7 0.00 0.00 0.00 49 1010.8
20260509173242 30 60 1.6 11.3 0.00 0.00 0.00 50 1010.8
20260509172738 30 305 4.8 9.7 0.00 0.00 0.00 51 1010.7
20260509172236 30 26 9.7 11.3 0.00 0.00 0.00 50 1010.9
20260509171731 30 338 3.2 4.8 0.00 0.00 0.00 49 1011.0
20260509171227 29 346 3.2 9.7 0.00 0.00 0.00 52 1011.0
20260509170724 29 155 4.8 11.3 0.00 0.00 0.00 51 1011.2
20260509170220 29 275 3.2 11.3 0.00 0.00 0.00 53 1011.4
20260509165719 28 346 3.2 11.3 0.00 0.00 0.00 51 1011.3
20260509165214 29 134 1.6 8.0 0.00 0.00 0.00 52 1011.4
20260509164710 28 356 6.4 11.3 0.00 0.00 0.00 51 1011.4
20260509164206 28 13 3.2 4.8 0.00 0.00 0.00 53 1011.3
20260509163704 28 252 3.2 12.9 0.00 0.00 0.00 54 1011.4
20260509163200 28 106 1.6 12.9 0.00 0.00 0.00 56 1011.2
20260509162658 28 352 4.8 11.3 0.00 0.00 0.00 56 1011.4
20260509162153 28 290 9.7 11.3 0.00 0.00 0.00 56 1011.4
20260509161649 28 3 6.4 9.7 0.00 0.00 0.00 55 1011.4
20260509161144 27 314 4.8 14.5 0.00 0.00 0.00 57 1011.4
20260509160640 27 13 6.4 11.3 0.00 0.00 0.00 57 1011.3
20260509160136 27 287 4.8 12.9 0.00 0.00 0.00 57 1011.6
20260509155632 27 340 6.4 11.3 0.00 0.00 0.00 57 1011.6
20260509155129 27 328 8.0 9.7 0.00 0.00 0.00 56 1011.6
20260509154624 27 337 4.8 9.7 0.00 0.00 0.00 56 1011.5
20260509154122 27 328 3.2 9.7 0.00 0.00 0.00 58 1011.4
20260509153619 26 288 4.8 11.3 0.00 0.00 0.00 59 1011.4
20260509153115 26 270 4.8 11.3 0.00 0.00 0.00 58 1011.3
20260509152611 26 1 9.7 12.9 0.00 0.00 0.00 58 1011.5
20260509152109 26 41 6.4 12.9 0.00 0.00 0.00 57 1011.3
20260509151605 26 72 4.8 11.3 0.00 0.00 0.00 59 1011.6
20260509151103 26 316 4.8 8.0 0.00 0.00 0.00 59 1011.3
20260509150600 26 3 6.4 9.7 0.00 0.00 0.00 59 1011.4
20260509150058 26 244 3.2 11.3 0.00 0.00 0.00 62 1011.3
20260509145553 26 239 6.4 11.3 0.00 0.00 0.00 65 1011.6
20260509145049 25 14 4.8 8.0 0.00 0.00 0.00 68 1011.6
20260509144546 25 88 1.6 8.0 0.00 0.00 0.00 69 1011.8
20260509144043 25 337 4.8 8.0 0.00 0.00 0.00 68 1011.6
20260509143540 25 319 4.8 8.0 0.00 0.00 0.00 72 1011.8
20260509143033 25 214 4.8 11.3 0.00 0.00 0.00 71 1011.9
20260509142528 25 258 6.4 8.0 0.00 0.00 0.00 72 1011.9
20260509142023 25 220 6.4 9.7 0.00 0.00 0.00 72 1011.9
20260509141520 25 310 3.2 9.7 0.00 0.00 0.00 73 1012.1
20260509141017 24 280 11.3 16.1 0.00 0.00 0.00 73 1011.9
20260509140514 24 307 9.7 14.5 0.00 0.00 0.00 74 1011.8
20260509140012 24 227 4.8 9.7 0.00 0.00 0.00 75 1011.9
20260509135509 24 332 4.8 9.7 0.00 0.00 0.00 75 1011.9
20260509135006 23 314 6.4 8.0 0.00 0.00 0.00 76 1011.9
20260509134503 23 28 1.6 3.2 0.00 0.00 0.00 77 1012.0
20260509134001 23 246 3.2 3.2 0.00 0.00 0.00 78 1011.9
20260509133457 22 326 6.4 8.0 0.00 0.00 0.00 78 1011.9
20260509132955 22 242 4.8 9.7 0.00 0.00 0.00 78 1011.9
20260509132453 22 276 4.8 8.0 0.00 0.00 0.00 79 1011.7
20260509131950 22 274 1.6 9.7 0.00 0.00 0.00 80 1011.7
20260509131447 22 193 0.0 4.8 0.00 0.00 0.00 80 1011.8
20260509130943 22 256 3.2 8.0 0.00 0.00 0.00 80 1011.7
20260509130439 22 210 1.6 8.0 0.00 0.00 0.00 79 1011.7
20260509125936 22 267 4.8 4.8 0.00 0.00 0.00 79 1012.0
20260509125433 22 281 9.7 12.9 0.00 0.00 0.00 79 1011.9
20260509124929 21 276 8.0 12.9 0.00 0.00 0.00 80 1011.9
20260509124426 21 290 4.8 8.0 0.00 0.00 0.00 80 1011.8
20260509123923 21 215 3.2 4.8 0.00 0.00 0.00 81 1011.7
20260509123421 21 310 4.8 8.0 0.00 0.00 0.00 82 1012.0
20260509122916 21 299 6.4 8.0 0.00 0.00 0.00 83 1011.8
20260509122414 20 285 1.6 3.2 0.00 0.00 0.00 84 1011.8
20260509121910 20 288 3.2 3.2 0.00 0.00 0.00 85 1011.9
20260509121407 20 170 1.6 3.2 0.00 0.00 0.00 85 1011.8
20260509120905 20 241 1.6 3.2 0.00 0.00 0.00 85 1011.7
20260509120403 20 293 3.2 3.2 0.00 0.00 0.00 86 1011.7
20260509115901 20 273 1.6 3.2 0.00 0.00 0.00 89 1011.7
20260509115357 20 127 0.0 1.6 0.00 0.00 0.00 89 1011.8
20260509114855 20 139 0.0 0.0 0.00 0.00 0.00 89 1011.7
20260509114354 20 135 0.0 0.0 0.00 0.00 0.00 89 1011.5
20260509113853 20 109 0.0 1.6 0.00 0.00 0.00 88 1011.3
20260509113350 20 132 0.0 1.6 0.00 0.00 0.00 88 1011.5
20260509112846 20 132 0.0 0.0 0.00 0.00 0.00 89 1011.4
20260509112343 21 120 0.0 0.0 0.00 0.00 0.00 88 1011.2
20260509111841 21 144 0.0 1.6 0.00 0.00 0.00 87 1011.1
20260509111337 21 180 0.0 1.6 0.00 0.00 0.00 87 1011.0
20260509110835 21 142 0.0 0.0 0.00 0.00 0.00 87 1011.0
20260509110331 21 134 0.0 0.0 0.00 0.00 0.00 87 1010.9
20260509105829 21 129 0.0 0.0 0.00 0.00 0.00 86 1010.8
20260509105327 21 133 0.0 0.0 0.00 0.00 0.00 86 1010.8
20260509104823 21 127 0.0 0.0 0.00 0.00 0.00 85 1010.7
20260509104320 22 133 0.0 0.0 0.00 0.00 0.00 84 1010.7
20260509103818 22 128 0.0 0.0 0.00 0.00 0.00 83 1010.6
20260509103315 22 141 1.6 1.6 0.00 0.00 0.00 83 1010.8
20260509102814 22 178 3.2 4.8 0.00 0.00 0.00 82 1010.9
20260509102311 22 152 1.6 11.3 0.00 0.00 0.00 81 1011.0
20260509101806 22 256 8.0 12.9 0.00 0.00 0.00 80 1010.9
20260509101303 22 324 11.3 14.5 0.00 0.00 0.00 83 1010.8
20260509100801 22 316 3.2 4.8 0.00 0.00 0.00 85 1010.8
20260509100258 22 301 4.8 9.7 0.00 0.00 0.00 85 1010.7
20260509095754 22 6 1.6 4.8 0.00 0.00 0.00 87 1010.7
20260509095252 22 266 8.0 12.9 0.00 0.00 0.00 88 1010.7
20260509094748 22 213 4.8 14.5 0.00 0.00 0.00 89 1009.9
20260509094245 21 14 6.4 11.3 0.00 0.00 0.00 90 1009.4
20260509093743 21 150 0.0 3.2 0.00 0.00 0.00 90 1008.2
20260509093240 21 143 1.6 3.2 0.00 0.00 0.00 90 1008.1
20260509092739 21 124 1.6 4.8 0.00 0.00 0.00 91 1008.0
20260509092236 21 124 1.6 3.2 0.00 0.00 0.00 91 1008.0
20260509091734 21 202 1.6 3.2 0.00 0.00 0.00 91 1008.0
20260509091230 21 147 0.0 1.6 0.00 0.00 0.00 91 1008.1
20260509090728 21 145 1.6 4.8 0.00 0.00 0.00 91 1008.0
20260509090224 21 124 1.6 4.8 0.00 0.00 0.00 91 1008.0
20260509085722 21 139 1.6 4.8 0.00 0.00 0.00 91 1008.3
20260509085219 21 139 1.6 4.8 0.00 0.00 0.00 91 1008.4
20260509084716 21 133 1.6 8.0 0.00 0.00 0.00 91 1008.5
20260509084212 21 185 1.6 4.8 0.00 0.00 0.00 91 1008.6
20260509083711 21 146 4.8 11.3 0.00 0.00 0.00 92 1008.7
20260509083207 21 128 0.0 3.2 0.00 0.00 0.00 92 1008.6
20260509082704 21 156 1.6 4.8 0.00 0.00 0.00 92 1008.8
20260509082200 21 182 4.8 8.0 0.00 0.00 0.00 92 1009.0
20260509081657 21 193 1.6 8.0 0.00 0.00 0.00 92 1009.5
20260509081155 21 153 1.6 3.2 0.00 0.00 0.00 92 1009.5
20260509080653 21 85 4.8 9.7 0.00 0.00 0.00 92 1009.7
20260509080150 21 130 0.0 4.8 0.00 0.00 0.00 91 1009.9
20260509075648 21 112 0.0 1.6 0.00 0.00 0.00 91 1010.3
20260509075146 21 93 1.6 1.6 0.00 0.00 0.00 90 1010.7
20260509074642 21 123 0.0 1.6 0.00 0.00 0.00 90 1010.9
20260509074139 21 148 1.6 3.2 0.00 0.00 0.00 90 1011.3
20260509073636 21 123 0.0 1.6 0.00 0.00 0.00 89 1011.5
20260509073132 21 131 1.6 3.2 0.00 0.00 0.00 89 1011.6
20260509072629 21 138 0.0 1.6 0.00 0.00 0.00 89 1012.0
20260509072126 21 167 1.6 1.6 0.00 0.00 0.00 89 1012.3
20260509071622 21 67 1.6 1.6 0.00 0.00 0.00 89 1012.2
20260509071120 21 116 0.0 1.6 0.00 0.00 0.00 90 1012.5
20260509070617 21 131 0.0 3.2 0.00 0.00 0.00 90 1012.8
20260509070113 21 134 0.0 1.6 0.00 0.00 0.00 90 1012.8
20260509065609 21 296 3.2 3.2 0.00 0.00 0.00 90 1013.0
20260509065105 21 128 0.0 1.6 0.00 0.00 0.00 90 1013.0
20260509064602 21 132 0.0 3.2 0.00 0.00 0.00 91 1012.8
20260509064101 21 129 0.0 1.6 0.00 0.00 0.00 91 1012.5
20260509063556 21 128 0.0 3.2 0.00 0.00 0.00 91 1012.7
20260509063053 21 131 0.0 0.0 0.00 0.00 0.00 91 1012.4
20260509062550 21 189 1.6 3.2 0.00 0.00 0.00 91 1012.5
20260509062048 21 142 0.0 1.6 0.00 0.00 0.00 91 1012.7
20260509061544 21 135 1.6 1.6 0.00 0.00 0.00 91 1012.9
20260509061042 21 129 0.0 0.0 0.00 0.00 0.00 91 1012.5
20260509060539 21 155 1.6 1.6 0.00 0.00 0.00 91 1012.5
20260509060034 21 131 0.0 1.6 0.00 0.00 0.00 90 1012.7
20260509055530 21 335 1.6 1.6 0.00 0.00 0.00 90 1012.6
20260509055021 21 137 1.6 3.2 0.00 0.00 0.00 90 1012.5
20260509054518 21 93 1.6 3.2 0.00 0.00 0.00 90 1012.4
20260509054016 21 58 1.6 8.0 0.00 0.00 0.00 90 1012.8
20260509053514 21 114 0.0 3.2 0.00 0.00 0.00 90 1012.5
20260509053011 21 22 4.8 4.8 0.00 0.00 0.00 91 1012.3
20260509052508 21 74 1.6 3.2 0.00 0.00 0.00 92 1011.8
20260509052006 21 127 0.0 1.6 0.00 0.00 0.00 91 1011.6
20260509051504 21 119 1.6 1.6 0.00 0.00 0.00 92 1011.7
20260509051001 21 128 0.0 1.6 0.00 0.00 0.00 91 1011.6
20260509050457 21 125 0.0 0.0 0.00 0.00 0.00 91 1011.7
20260509045954 21 111 0.0 0.0 0.00 0.00 0.00 91 1011.5
20260509045451 21 121 0.0 0.0 0.00 0.00 0.00 91 1011.5
20260509044948 21 122 0.0 0.0 0.00 0.00 0.00 90 1011.3
20260509044446 21 134 0.0 0.0 0.00 0.00 0.00 90 1011.5
20260509043943 21 124 0.0 0.0 0.00 0.00 0.00 89 1011.5
20260509043438 21 127 0.0 0.0 0.00 0.00 0.00 89 1011.6
20260509042934 21 128 0.0 1.6 0.00 0.00 0.00 89 1011.9
20260509042431 22 134 0.0 1.6 0.00 0.00 0.00 89 1011.7
20260509041927 21 163 3.2 3.2 0.00 0.00 0.00 89 1011.9
20260509041424 21 134 1.6 1.6 0.00 0.00 0.00 90 1012.1
20260509040922 21 117 0.0 0.0 0.00 0.00 0.00 89 1012.0
20260509040420 21 117 0.0 1.6 0.00 0.00 0.00 89 1011.9
20260509035917 22 119 0.0 0.0 0.00 0.00 0.00 88 1011.7
20260509035414 22 122 0.0 1.6 0.00 0.00 0.00 88 1011.5
20260509034910 22 108 0.0 1.6 0.00 0.00 0.00 88 1011.6
20260509034408 22 117 0.0 1.6 0.00 0.00 0.00 88 1011.2
20260509033905 22 106 1.6 1.6 0.00 0.00 0.00 87 1010.8
20260509033402 22 127 0.0 0.0 0.00 0.00 0.00 87 1011.0
20260509032858 22 131 0.0 1.6 0.00 0.00 0.00 87 1011.0
20260509032355 22 109 0.0 1.6 0.00 0.00 0.00 87 1010.9
20260509031854 22 131 1.6 3.2 0.00 0.00 0.00 87 1010.7
20260509031351 22 121 1.6 3.2 0.00 0.00 0.00 87 1010.3
20260509030848 22 157 1.6 3.2 0.00 0.00 0.00 86 1010.5
20260509030346 22 128 0.0 4.8 0.00 0.00 0.00 86 1010.3
20260509025843 22 132 1.6 3.2 0.00 0.00 0.00 86 1010.3
20260509025338 22 129 1.6 3.2 0.00 0.00 0.00 86 1010.1
20260509024834 22 148 1.6 3.2 0.00 0.00 0.00 85 1010.1
20260509024330 22 113 0.0 3.2 0.00 0.00 0.00 85 1009.8
20260509023827 22 81 0.0 3.2 0.00 0.00 0.00 85 1009.7
20260509023325 22 139 1.6 1.6 0.00 0.00 0.00 84 1009.7
20260509022821 22 143 1.6 3.2 0.00 0.00 0.00 84 1009.8
20260509022319 22 141 1.6 3.2 0.00 0.00 0.00 84 1009.8
20260509021815 22 106 3.2 3.2 0.00 0.00 0.00 84 1009.9
20260509021312 22 130 0.0 1.6 0.00 0.00 0.00 84 1010.0
20260509020810 22 131 0.0 1.6 0.00 0.00 0.00 84 1009.9
20260509020308 22 133 0.0 1.6 0.00 0.00 0.00 84 1009.8
20260509015805 22 148 0.0 1.6 0.00 0.00 0.00 84 1009.9
20260509015306 22 133 0.0 1.6 0.00 0.00 0.00 84 1010.1
20260509014759 22 121 0.0 0.0 0.00 0.00 0.00 85 1010.1
20260509014256 22 122 0.0 0.0 0.00 0.00 0.00 85 1010.0
20260509013753 22 129 0.0 0.0 0.00 0.00 0.00 84 1009.9
20260509013248 22 146 1.6 1.6 0.00 0.00 0.00 84 1009.9
20260509012745 22 117 0.0 0.0 0.00 0.00 0.00 84 1009.8
20260509012242 22 115 0.0 0.0 0.00 0.00 0.00 84 1009.9
20260509011739 22 127 0.0 1.6 0.00 0.00 0.00 83 1009.6
20260509011237 22 124 0.0 0.0 0.00 0.00 0.00 83 1009.6
20260509010735 22 119 0.0 1.6 0.00 0.00 0.00 83 1009.7
20260509010231 22 115 0.0 1.6 0.00 0.00 0.00 82 1009.4
20260509005728 22 126 0.0 1.6 0.00 0.00 0.00 82 1009.5
20260509005225 22 126 0.0 1.6 0.00 0.00 0.00 82 1009.3
20260509004720 22 108 3.2 3.2 0.00 0.00 0.00 82 1009.2
20260509004218 22 100 0.0 1.6 0.00 0.00 0.00 82 1009.2
20260509003716 22 129 0.0 1.6 0.00 0.00 0.00 82 1009.0
20260509003213 22 144 1.6 1.6 0.00 0.00 0.00 82 1009.2
20260509002710 22 116 0.0 1.6 0.00 0.00 0.00 82 1009.1
20260509002208 23 115 0.0 0.0 0.00 0.00 0.00 81 1009.3
20260509001705 23 133 1.6 3.2 0.00 0.00 0.00 81 1009.1
20260509001201 23 128 0.0 1.6 0.00 0.00 0.00 80 1009.2
20260509000659 23 124 0.0 1.6 0.00 0.00 0.00 80 1009.3
20260509000156 23 124 0.0 0.0 0.00 0.00 0.00 80 1009.3
20260508235653 23 130 0.0 1.6 0.00 0.00 0.00 80 1009.4
20260508235149 23 130 1.6 3.2 0.00 0.00 0.00 80 1009.4
20260508234646 23 125 0.0 1.6 0.00 0.00 0.00 80 1009.6
20260508234142 23 80 0.0 1.6 0.00 0.00 0.00 79 1009.5
20260508233637 23 102 0.0 1.6 0.00 0.00 0.00 79 1009.5
20260508233134 23 117 0.0 1.6 0.00 0.00 0.00 80 1009.5
20260508232631 23 148 1.6 1.6 0.00 0.00 0.00 79 1009.5
20260508232128 23 129 0.0 1.6 0.00 0.00 0.00 79 1009.5
20260508231625 23 133 1.6 3.2 0.00 0.00 0.00 78 1009.6
20260508231123 23 118 0.0 3.2 0.00 0.00 0.00 77 1009.5
20260508230619 23 125 1.6 3.2 0.00 0.00 0.00 78 1009.4
20260508230115 23 91 0.0 1.6 0.00 0.00 0.00 78 1009.5
20260508225613 23 136 1.6 8.0 0.00 0.00 0.00 77 1009.5
20260508225109 23 128 1.6 9.7 0.00 0.00 0.00 76 1009.4
20260508224607 23 144 0.0 3.2 0.00 0.00 0.00 77 1009.5
20260508224104 23 172 3.2 8.0 0.00 0.00 0.00 76 1009.4
20260508223602 23 158 1.6 3.2 0.00 0.00 0.00 77 1009.4
20260508223059 23 133 4.8 8.0 0.00 0.00 0.00 76 1009.4
20260508222556 23 170 1.6 3.2 0.00 0.00 0.00 76 1009.6
20260508222053 23 205 4.8 8.0 0.00 0.00 0.00 75 1009.6
20260508221549 23 146 3.2 4.8 0.00 0.00 0.00 75 1009.7
20260508221045 23 122 0.0 1.6 0.00 0.00 0.00 76 1009.8
20260508220542 23 148 1.6 3.2 0.00 0.00 0.00 76 1009.8
20260508220038 23 157 1.6 3.2 0.00 0.00 0.00 75 1009.9
20260508215535 23 194 4.8 4.8 0.00 0.00 0.00 73 1009.9
20260508215032 23 87 0.0 4.8 0.00 0.00 0.00 75 1010.1
20260508214530 23 67 3.2 4.8 0.00 0.00 0.00 76 1009.8
20260508214026 23 134 1.6 9.7 0.00 0.00 0.00 76 1010.3
20260508213524 22 150 1.6 8.0 0.00 0.00 0.00 76 1010.5
20260508213019 22 107 0.0 1.6 0.00 0.00 0.00 77 1010.5
20260508212516 22 85 3.2 4.8 0.00 0.00 0.00 76 1010.6
20260508212012 22 67 1.6 3.2 0.00 0.00 0.00 77 1010.7
20260508211508 22 147 1.6 3.2 0.00 0.00 0.00 78 1010.8
20260508211005 22 128 1.6 3.2 0.00 0.00 0.00 78 1011.1
20260508210501 21 152 4.8 4.8 0.00 0.00 0.00 78 1011.1
20260508205957 21 144 0.0 1.6 0.00 0.00 0.00 79 1011.2
20260508205455 21 232 1.6 3.2 0.00 0.00 0.00 79 1011.3
20260508204951 21 105 1.6 3.2 0.00 0.00 0.00 80 1011.4
20260508204448 21 133 3.2 8.0 0.00 0.00 0.00 78 1011.3
20260508203944 21 124 1.6 1.6 0.00 0.00 0.00 83 1011.2
20260508203440 20 0 4.8 11.3 0.00 0.00 0.00 84 1011.6
20260508202936 20 214 4.8 4.8 0.00 0.00 0.00 85 1010.7
20260508202433 20 69 0.0 3.2 0.00 0.00 0.00 84 1010.7